• In Hungary
  • List of Countries
  • For 7 days
  • Water Temperature
  • Satellite Maps
  • Weather Map
  • News
  • Weather Widgets
  • user-avatar
    Login

    Hourly Weather Olszewek

    Today, 23 October, Tuesday

    Time Temperature Precipitation Wind Pressure Humidity
    00:00 +5°C° 0 mm 4 mps 749 mmHg 87%
    01:00 +4°C° 0 mm 4 mps 749 mmHg 89%
    02:00 +4°C° 0 mm 4 mps 749 mmHg 89%
    03:00 +4°C° 0 mm 4 mps 748 mmHg 89%
    04:00 +3°C° 0 mm 4 mps 748 mmHg 90%
    05:00 +3°C° 0 mm 5 mps 747 mmHg 86%
    06:00 +3°C° 0 mm 5 mps 747 mmHg 83%
    07:00 +3°C° 0 mm 6 mps 746 mmHg 79%
    08:00 +4°C° 0.3 mm 7 mps 745 mmHg 76%
    09:00 +4°C° 0.3 mm 8 mps 744 mmHg 73%
    10:00 +5°C° 0.3 mm 9 mps 743 mmHg 70%
    11:00 +5°C° 1 mm 9 mps 741 mmHg 71%
    12:00 +5°C° 1 mm 10 mps 740 mmHg 73%
    13:00 +4°C° 1 mm 11 mps 739 mmHg 75%
    14:00 +4°C° 0.8 mm 11 mps 738 mmHg 76%
    15:00 +4°C° 0.8 mm 11 mps 736 mmHg 77%
    16:00 +6°C° 0.8 mm 11 mps 735 mmHg 79%
    17:00 +6°C° 0.9 mm 11 mps 735 mmHg 81%
    18:00 +7°C° 0.9 mm 10 mps 734 mmHg 83%
    19:00 +7°C° 0.9 mm 10 mps 733 mmHg 84%
    20:00 +7°C° 1.2 mm 9 mps 732 mmHg 84%
    21:00 +7°C° 1.2 mm 8 mps 732 mmHg 84%
    22:00 +8°C° 1.2 mm 7 mps 731 mmHg 84%
    23:00 +8°C° 1 mm 7 mps 730 mmHg 83%

    Tomorrow, 24 October, Wednesday

    Time Temperature Precipitation Wind Pressure Humidity
    00:00 +6°C° 1 mm 7 mps 730 mmHg 82%
    01:00 +6°C° 1 mm 7 mps 729 mmHg 82%
    02:00 +6°C° 0.3 mm 8 mps 728 mmHg 79%
    03:00 +5°C° 0.3 mm 9 mps 728 mmHg 75%
    04:00 +5°C° 0.3 mm 10 mps 727 mmHg 72%
    05:00 +3°C° 0.2 mm 10 mps 728 mmHg 69%
    06:00 +3°C° 0.2 mm 10 mps 729 mmHg 65%
    07:00 +2°C° 0.2 mm 10 mps 730 mmHg 62%
    08:00 +3°C° 0 mm 10 mps 731 mmHg 56%
    09:00 +3°C° 0 mm 11 mps 732 mmHg 51%
    10:00 +4°C° 0 mm 12 mps 732 mmHg 46%
    11:00 +4°C° 0 mm 12 mps 733 mmHg 46%
    12:00 +4°C° 0 mm 12 mps 733 mmHg 46%
    13:00 +4°C° 0 mm 12 mps 733 mmHg 47%
    14:00 +4°C° 0 mm 12 mps 734 mmHg 48%
    15:00 +4°C° 0 mm 12 mps 734 mmHg 49%
    16:00 +4°C° 0 mm 11 mps 735 mmHg 50%
    17:00 +3°C° 0 mm 11 mps 736 mmHg 51%
    18:00 +3°C° 0 mm 11 mps 736 mmHg 52%
    19:00 +3°C° 0 mm 10 mps 737 mmHg 53%
    20:00 +2°C° 0 mm 10 mps 738 mmHg 55%
    21:00 +2°C° 0 mm 9 mps 738 mmHg 57%
    22:00 +2°C° 0 mm 9 mps 739 mmHg 59%
    23:00 +2°C° 0 mm 8 mps 739 mmHg 60%

    Day after tomorrow, 25 October, Thursday

    Time Temperature Precipitation Wind Pressure Humidity
    00:00 +3°C° 0 mm 7 mps 739 mmHg 62%
    01:00 +2°C° 0 mm 7 mps 740 mmHg 64%
    02:00 +2°C° 0 mm 7 mps 740 mmHg 67%
    03:00 +2°C° 0 mm 6 mps 740 mmHg 69%
    04:00 +1°C° 0 mm 6 mps 740 mmHg 72%
    05:00 +1°C° 0 mm 6 mps 739 mmHg 73%
    06:00 +2°C° 0 mm 6 mps 738 mmHg 75%
    07:00 +2°C° 0 mm 6 mps 738 mmHg 76%
    08:00 +3°C° 0.8 mm 7 mps 737 mmHg 79%
    09:00 +3°C° 0.8 mm 7 mps 736 mmHg 83%
    10:00 +4°C° 0.8 mm 8 mps 735 mmHg 86%
    11:00 +5°C° 0.5 mm 9 mps 734 mmHg 81%
    12:00 +7°C° 0.5 mm 10 mps 734 mmHg 77%
    13:00 +8°C° 0.5 mm 10 mps 733 mmHg 72%
    14:00 +8°C° 0.2 mm 10 mps 733 mmHg 72%
    15:00 +7°C° 0.2 mm 10 mps 734 mmHg 72%
    16:00 +7°C° 0.2 mm 9 mps 734 mmHg 71%
    17:00 +6°C° 0 mm 9 mps 735 mmHg 73%
    18:00 +6°C° 0 mm 8 mps 735 mmHg 75%
    19:00 +5°C° 0 mm 7 mps 736 mmHg 77%
    20:00 +5°C° 0 mm 7 mps 737 mmHg 79%
    21:00 +5°C° 0 mm 7 mps 737 mmHg 81%
    22:00 +4°C° 0 mm 7 mps 738 mmHg 83%
    23:00 +4°C° 0 mm 6 mps 738 mmHg 85%

    26 October, Friday

    Time Temperature Precipitation Wind Pressure Humidity
    00:00 +4°C° 0 mm 6 mps 738 mmHg 86%
    01:00 +4°C° 0 mm 6 mps 738 mmHg 88%
    02:00 +3°C° 0 mm 6 mps 739 mmHg 88%
    03:00 +3°C° 0 mm 5 mps 739 mmHg 89%
    04:00 +3°C° 0 mm 5 mps 739 mmHg 90%
    05:00 +3°C° 0 mm 5 mps 739 mmHg 89%
    06:00 +4°C° 0 mm 4 mps 739 mmHg 89%
    07:00 +5°C° 0 mm 4 mps 740 mmHg 88%
    08:00 +5°C° 0 mm 4 mps 740 mmHg 84%
    09:00 +6°C° 0 mm 4 mps 740 mmHg 80%
    10:00 +7°C° 0 mm 5 mps 740 mmHg 76%
    11:00 +7°C° 0 mm 5 mps 739 mmHg 72%
    12:00 +8°C° 0 mm 5 mps 739 mmHg 68%
    13:00 +9°C° 0 mm 5 mps 739 mmHg 64%
    14:00 +8°C° 0 mm 4 mps 739 mmHg 68%
    15:00 +9°C° 0 mm 3 mps 738 mmHg 72%
    16:00 +8°C° 0 mm 3 mps 738 mmHg 75%
    17:00 +8°C° 0 mm 3 mps 738 mmHg 79%
    18:00 +7°C° 0 mm 3 mps 738 mmHg 83%
    19:00 +7°C° 0 mm 3 mps 738 mmHg 87%
    20:00 +7°C° 0 mm 3 mps 737 mmHg 86%
    21:00 +7°C° 0 mm 4 mps 737 mmHg 86%
    22:00 +7°C° 0 mm 4 mps 737 mmHg 85%
    23:00 +7°C° 0 mm 4 mps 736 mmHg 85%

    27 October, Saturday

    Time Temperature Precipitation Wind Pressure Humidity
    00:00 +7°C° 0 mm 5 mps 736 mmHg 84%
    01:00 +7°C° 0 mm 5 mps 735 mmHg 84%
    02:00 +7°C° 0 mm 5 mps 735 mmHg 85%
    03:00 +8°C° 0 mm 4 mps 734 mmHg 85%
    04:00 +8°C° 0 mm 4 mps 734 mmHg 86%
    05:00 +7°C° 0 mm 4 mps 734 mmHg 88%
    06:00 +7°C° 0 mm 4 mps 734 mmHg 90%
    07:00 +8°C° 0 mm 3 mps 734 mmHg 91%
    08:00 +8°C° 0 mm 4 mps 734 mmHg 85%
    09:00 +8°C° 0 mm 4 mps 735 mmHg 80%
    10:00 +9°C° 0 mm 5 mps 735 mmHg 74%
    11:00 +10°C° 0 mm 4 mps 735 mmHg 70%
    12:00 +10°C° 0 mm 4 mps 735 mmHg 67%
    13:00 +10°C° 0 mm 4 mps 735 mmHg 63%
    14:00 +10°C° 0.1 mm 3 mps 735 mmHg 65%
    15:00 +9°C° 0.1 mm 3 mps 735 mmHg 66%
    16:00 +8°C° 0.1 mm 2 mps 735 mmHg 67%
    17:00 +8°C° 0.1 mm 2 mps 735 mmHg 68%
    18:00 +8°C° 0.1 mm 2 mps 736 mmHg 68%
    19:00 +7°C° 0.1 mm 2 mps 736 mmHg 69%
    20:00 +7°C° 0 mm 2 mps 736 mmHg 69%
    21:00 +7°C° 0 mm 2 mps 736 mmHg 69%
    22:00 +8°C° 0 mm 1 mps 736 mmHg 69%
    23:00 +7°C° 0.1 mm 1 mps 736 mmHg 71%

    28 October, Sunday

    Time Temperature Precipitation Wind Pressure Humidity
    00:00 +7°C° 0.1 mm 1 mps 735 mmHg 72%
    01:00 +7°C° 0.1 mm 1 mps 735 mmHg 73%
    02:00 +7°C° 0.4 mm 1 mps 735 mmHg 75%
    03:00 +7°C° 0.4 mm 1 mps 735 mmHg 76%
    04:00 +6°C° 0.4 mm 1 mps 734 mmHg 78%
    05:00 +6°C° 0.7 mm 1 mps 734 mmHg 79%
    06:00 +6°C° 0.7 mm 1 mps 734 mmHg 80%
    07:00 +6°C° 0.7 mm 1 mps 734 mmHg 80%
    08:00 +5°C° 0.4 mm 2 mps 734 mmHg 80%
    09:00 +5°C° 0.4 mm 2 mps 734 mmHg 79%
    10:00 +5°C° 0.4 mm 2 mps 735 mmHg 78%
    11:00 +4°C° 0.3 mm 3 mps 735 mmHg 76%
    12:00 +5°C° 0.3 mm 4 mps 736 mmHg 74%
    13:00 +5°C° 0.3 mm 4 mps 736 mmHg 71%
    14:00 +5°C° 0 mm 4 mps 737 mmHg 71%
    15:00 +5°C° 0 mm 3 mps 737 mmHg 71%
    16:00 +5°C° 0 mm 3 mps 738 mmHg 71%
    17:00 +4°C° 0 mm 3 mps 739 mmHg 74%
    18:00 +3°C° 0 mm 3 mps 739 mmHg 76%
    19:00 +3°C° 0 mm 3 mps 740 mmHg 79%
    20:00 +3°C° 0 mm 3 mps 741 mmHg 80%
    21:00 +2°C° 0 mm 3 mps 741 mmHg 80%
    22:00 +2°C° 0 mm 3 mps 742 mmHg 81%
    23:00 +2°C° 0 mm 3 mps 742 mmHg 82%

    29 October, Monday

    Time Temperature Precipitation Wind Pressure Humidity
    00:00 +2°C° 0 mm 3 mps 742 mmHg 84%
    01:00 +1°C° 0 mm 3 mps 743 mmHg 85%
    02:00 +1°C° 0 mm 3 mps 743 mmHg 86%
    03:00 +1°C° 0 mm 3 mps 743 mmHg 88%
    04:00 +1°C° 0 mm 3 mps 743 mmHg 89%
    05:00 +1°C° 0 mm 3 mps 744 mmHg 90%
    06:00 +1°C° 0 mm 2 mps 744 mmHg 90%
    07:00 +1°C° 0 mm 2 mps 744 mmHg 90%
    08:00 +3°C° 0 mm 2 mps 744 mmHg 84%
    09:00 +4°C° 0 mm 2 mps 745 mmHg 78%
    10:00 +5°C° 0 mm 2 mps 745 mmHg 71%
    11:00 +7°C° 0 mm 1 mps 745 mmHg 69%
    12:00 +7°C° 0 mm 1 mps 745 mmHg 66%
    13:00 +8°C° 0 mm 1 mps 745 mmHg 63%
    14:00 +7°C° 0 mm 1 mps 745 mmHg 66%
    15:00 +7°C° 0 mm 1 mps 744 mmHg 70%
    16:00 +5°C° 0 mm 2 mps 744 mmHg 73%
    17:00 +5°C° 0 mm 2 mps 744 mmHg 76%
    18:00 +4°C° 0 mm 2 mps 744 mmHg 79%
    19:00 +4°C° 0 mm 2 mps 744 mmHg 81%
    20:00 +4°C° 0 mm 2 mps 743 mmHg 81%
    21:00 +3°C° 0 mm 3 mps 743 mmHg 81%
    22:00 +3°C° 0 mm 3 mps 743 mmHg 81%
    23:00 +3°C° 0.2 mm 3 mps 742 mmHg 82%
    Show more